This is the latest recevied weather packets stored in our database for station/object WX7EM. If no packets are shown the sender has not sent any weather packets the latest 10 day(s).
| Time | Temp. | Humidity | Pressure | Rain* | Wind** | Luminosity | Snow |
|---|---|---|---|---|---|---|---|
| 1777857494 | 29.44° C | 45% | 1006.1 hPa | 0 mm | - | 137 W/m² | - |
| 1777857190 | 28.89° C | 47% | 1006.2 hPa | 0 mm | - | 147 W/m² | - |
| 1777856886 | 28.89° C | 48% | 1006.3 hPa | 0 mm | - | 93 W/m² | - |
| 1777856581 | 28.89° C | 45% | 1006.2 hPa | 0 mm | - | 78 W/m² | - |
| 1777856279 | 28.89° C | 45% | 1006.2 hPa | 0 mm | - | 74 W/m² | - |
| 1777855975 | 28.89° C | 44% | 1006.4 hPa | 0 mm | - | 79 W/m² | - |
| 1777855673 | 28.89° C | 45% | 1006.2 hPa | 0 mm | - | 92 W/m² | - |
| 1777855370 | 28.89° C | 44% | 1006.4 hPa | 0 mm | - | 106 W/m² | - |
| 1777855067 | 28.89° C | 46% | 1006.5 hPa | 0 mm | - | 111 W/m² | - |
| 1777854764 | 29.44° C | 45% | 1006.2 hPa | 0 mm | - | 108 W/m² | - |
| 1777854460 | 29.44° C | 43% | 1006.4 hPa | 0 mm | - | 109 W/m² | - |
| 1777854157 | 29.44° C | 43% | 1006.3 hPa | 0 mm | - | 123 W/m² | - |
| 1777853855 | 30° C | 43% | 1006.5 hPa | 0 mm | - | 145 W/m² | - |
| 1777853552 | 30.56° C | 42% | 1006.4 hPa | 0 mm | - | 165 W/m² | - |
| 1777853248 | 30° C | 42% | 1006.5 hPa | 0 mm | - | 236 W/m² | - |
| 1777852945 | 30.56° C | 42% | 1006.4 hPa | 0 mm | - | 306 W/m² | - |
| 1777852644 | 30° C | 43% | 1006.4 hPa | 0 mm | - | 451 W/m² | - |
| 1777852341 | 30° C | 44% | 1006.5 hPa | 0 mm | - | 222 W/m² | - |
| 1777852038 | 30° C | 45% | 1006.6 hPa | 0 mm | - | 230 W/m² | - |
| 1777851736 | 30° C | 44% | 1006.5 hPa | 0 mm | - | 176 W/m² | - |
| 1777851433 | 30° C | 45% | 1006.6 hPa | 0 mm | - | 150 W/m² | - |
| 1777851128 | 29.44° C | 46% | 1006.7 hPa | 0 mm | - | 131 W/m² | - |
| 1777850825 | 29.44° C | 48% | 1006.7 hPa | 0 mm | - | 131 W/m² | - |
| 1777850523 | 28.89° C | 49% | 1006.8 hPa | 0 mm | - | 109 W/m² | - |
| 1777850221 | 28.89° C | 48% | 1006.7 hPa | 0 mm | - | 93 W/m² | - |
* Rain latest hour (hover to see other rain measurements)
** Current wind speed in m/s (hover to see current wind gust speed)